When you browse on this site, cookies collect data to enhance your experience and personalize the content and advertising you see.
Visit our Privacy Policy to learn more. By continuing to use the site, you agree to this use of cookies and data.
  • In Netherlands
  • List of Countries
  • For 7 days
  • Water Temperature
  • Weather Map
  • Weather Widgets
  • user-avatar
    Login

    Hourly Weather Stepino

    Today, 2 June, Tuesday

    Time Temperature Precipitation Wind Pressure Humidity
    00:00 +6°C° 0 mm 4 mps 742 mmHg 90%
    01:00 +5°C° 0 mm 4 mps 742 mmHg 90%
    02:00 +5°C° 0 mm 4 mps 742 mmHg 90%
    03:00 +5°C° 0 mm 4 mps 741 mmHg 88%
    04:00 +5°C° 0 mm 5 mps 741 mmHg 86%
    05:00 +5°C° 0 mm 5 mps 741 mmHg 83%
    06:00 +7°C° 0 mm 5 mps 741 mmHg 76%
    07:00 +8°C° 0 mm 6 mps 741 mmHg 68%
    08:00 +10°C° 0 mm 6 mps 741 mmHg 60%
    09:00 +11°C° 0 mm 6 mps 741 mmHg 57%
    10:00 +13°C° 0 mm 6 mps 741 mmHg 55%
    11:00 +14°C° 0 mm 6 mps 741 mmHg 53%
    12:00 +13°C° 0.1 mm 6 mps 741 mmHg 58%
    13:00 +12°C° 0.1 mm 5 mps 741 mmHg 64%
    14:00 +12°C° 0.1 mm 5 mps 741 mmHg 69%
    15:00 +10°C° 0.1 mm 5 mps 740 mmHg 75%
    16:00 +10°C° 0.1 mm 4 mps 740 mmHg 80%
    17:00 +8°C° 0.1 mm 4 mps 740 mmHg 85%
    18:00 +8°C° 0.1 mm 4 mps 740 mmHg 86%
    19:00 +8°C° 0.1 mm 4 mps 740 mmHg 87%
    20:00 +8°C° 0.1 mm 4 mps 740 mmHg 88%
    21:00 +8°C° 0.1 mm 4 mps 739 mmHg 89%
    22:00 +8°C° 0.1 mm 4 mps 739 mmHg 90%
    23:00 +8°C° 0.1 mm 4 mps 739 mmHg 92%

    Tomorrow, 3 June, Wednesday

    Time Temperature Precipitation Wind Pressure Humidity
    00:00 +8°C° 0.2 mm 4 mps 739 mmHg 93%
    01:00 +8°C° 0.2 mm 4 mps 739 mmHg 95%
    02:00 +8°C° 0.2 mm 4 mps 739 mmHg 96%
    03:00 +8°C° 0.2 mm 4 mps 738 mmHg 97%
    04:00 +8°C° 0.2 mm 4 mps 738 mmHg 97%
    05:00 +9°C° 0.2 mm 3 mps 738 mmHg 97%
    06:00 +10°C° 0.1 mm 3 mps 738 mmHg 97%
    07:00 +10°C° 0.1 mm 3 mps 738 mmHg 97%
    08:00 +10°C° 0.1 mm 3 mps 738 mmHg 97%
    09:00 +11°C° 0 mm 3 mps 738 mmHg 96%
    10:00 +11°C° 0 mm 3 mps 738 mmHg 95%
    11:00 +12°C° 0 mm 3 mps 738 mmHg 94%
    12:00 +12°C° 0.9 mm 3 mps 738 mmHg 95%
    13:00 +12°C° 0.9 mm 3 mps 738 mmHg 96%
    14:00 +11°C° 0.9 mm 3 mps 738 mmHg 97%
    15:00 +11°C° 2.3 mm 3 mps 737 mmHg 97%
    16:00 +12°C° 2.3 mm 2 mps 737 mmHg 98%
    17:00 +12°C° 2.3 mm 2 mps 736 mmHg 98%
    18:00 +13°C° 2.4 mm 2 mps 736 mmHg 98%
    19:00 +12°C° 2.4 mm 3 mps 736 mmHg 98%
    20:00 +12°C° 2.4 mm 3 mps 736 mmHg 98%
    21:00 +12°C° 1.7 mm 3 mps 735 mmHg 98%
    22:00 +12°C° 1.7 mm 3 mps 735 mmHg 98%
    23:00 +12°C° 1.7 mm 3 mps 735 mmHg 98%

    Day after tomorrow, 4 June, Thursday

    Time Temperature Precipitation Wind Pressure Humidity
    00:00 +12°C° 1.1 mm 3 mps 734 mmHg 98%
    01:00 +12°C° 1.1 mm 3 mps 734 mmHg 98%
    02:00 +12°C° 1.1 mm 3 mps 733 mmHg 98%
    03:00 +12°C° 0.6 mm 3 mps 732 mmHg 98%
    04:00 +12°C° 0.6 mm 2 mps 732 mmHg 98%
    05:00 +12°C° 0.6 mm 2 mps 731 mmHg 98%
    06:00 +12°C° 0.5 mm 2 mps 731 mmHg 98%
    07:00 +12°C° 0.5 mm 2 mps 731 mmHg 98%
    08:00 +12°C° 0.5 mm 1 mps 730 mmHg 98%
    09:00 +13°C° 0.1 mm 1 mps 730 mmHg 95%
    10:00 +14°C° 0.1 mm 1 mps 730 mmHg 93%
    11:00 +15°C° 0.1 mm 1 mps 730 mmHg 90%
    12:00 +16°C° 0.2 mm 2 mps 731 mmHg 87%
    13:00 +17°C° 0.2 mm 2 mps 731 mmHg 83%
    14:00 +18°C° 0.2 mm 2 mps 731 mmHg 80%
    15:00 +17°C° 1 mm 2 mps 731 mmHg 83%
    16:00 +17°C° 1 mm 3 mps 732 mmHg 86%
    17:00 +16°C° 1 mm 3 mps 732 mmHg 89%
    18:00 +14°C° 0.8 mm 3 mps 732 mmHg 91%
    19:00 +14°C° 0.8 mm 2 mps 732 mmHg 93%
    20:00 +13°C° 0.8 mm 2 mps 732 mmHg 95%
    21:00 +12°C° 0 mm 2 mps 733 mmHg 96%
    22:00 +10°C° 0 mm 2 mps 733 mmHg 96%
    23:00 +9°C° 0 mm 2 mps 733 mmHg 97%

    5 June, Friday

    Time Temperature Precipitation Wind Pressure Humidity
    00:00 +9°C° 0 mm 2 mps 734 mmHg 97%
    01:00 +9°C° 0 mm 2 mps 734 mmHg 97%
    02:00 +8°C° 0 mm 2 mps 734 mmHg 98%
    03:00 +9°C° 0 mm 2 mps 734 mmHg 97%
    04:00 +9°C° 0 mm 2 mps 734 mmHg 97%
    05:00 +10°C° 0 mm 2 mps 735 mmHg 96%
    06:00 +11°C° 0 mm 3 mps 735 mmHg 91%
    07:00 +13°C° 0 mm 3 mps 735 mmHg 87%
    08:00 +16°C° 0 mm 3 mps 735 mmHg 82%
    09:00 +17°C° 0.7 mm 3 mps 735 mmHg 80%
    10:00 +18°C° 0.7 mm 4 mps 735 mmHg 78%
    11:00 +18°C° 0.7 mm 4 mps 735 mmHg 77%
    12:00 +19°C° 0.6 mm 4 mps 735 mmHg 75%
    13:00 +19°C° 0.6 mm 4 mps 735 mmHg 73%
    14:00 +19°C° 0.6 mm 3 mps 735 mmHg 71%
    15:00 +18°C° 0.7 mm 3 mps 735 mmHg 76%
    16:00 +18°C° 0.7 mm 3 mps 735 mmHg 81%
    17:00 +17°C° 0.7 mm 2 mps 735 mmHg 86%
    18:00 +16°C° 0.2 mm 2 mps 735 mmHg 88%
    19:00 +15°C° 0.2 mm 2 mps 735 mmHg 91%
    20:00 +14°C° 0.2 mm 2 mps 735 mmHg 93%
    21:00 +13°C° 0 mm 1 mps 735 mmHg 94%
    22:00 +12°C° 0 mm 1 mps 735 mmHg 95%
    23:00 +12°C° 0 mm 1 mps 735 mmHg 95%

    6 June, Saturday

    Time Temperature Precipitation Wind Pressure Humidity
    00:00 +11°C° 0 mm 1 mps 735 mmHg 96%
    01:00 +11°C° 0 mm 1 mps 735 mmHg 96%
    02:00 +11°C° 0 mm 1 mps 735 mmHg 96%
    03:00 +11°C° 0 mm 1 mps 735 mmHg 96%
    04:00 +12°C° 0 mm 1 mps 735 mmHg 96%
    05:00 +12°C° 0 mm 1 mps 735 mmHg 95%
    06:00 +14°C° 0 mm 1 mps 735 mmHg 91%
    07:00 +15°C° 0 mm 1 mps 735 mmHg 86%
    08:00 +17°C° 0 mm 2 mps 736 mmHg 81%
    09:00 +19°C° 0 mm 2 mps 735 mmHg 72%
    10:00 +20°C° 0 mm 2 mps 735 mmHg 64%
    11:00 +23°C° 0 mm 2 mps 735 mmHg 55%
    12:00 +23°C° 0.1 mm 2 mps 735 mmHg 55%
    13:00 +23°C° 0.1 mm 2 mps 735 mmHg 54%
    14:00 +23°C° 0.1 mm 2 mps 734 mmHg 54%
    15:00 +23°C° 0.1 mm 2 mps 734 mmHg 57%
    16:00 +23°C° 0.1 mm 2 mps 734 mmHg 60%
    17:00 +23°C° 0.1 mm 2 mps 734 mmHg 63%
    18:00 +20°C° 0 mm 2 mps 734 mmHg 72%
    19:00 +18°C° 0 mm 2 mps 734 mmHg 82%
    20:00 +16°C° 0 mm 2 mps 734 mmHg 92%
    21:00 +15°C° 0 mm 2 mps 733 mmHg 93%
    22:00 +15°C° 0 mm 2 mps 733 mmHg 95%
    23:00 +14°C° 0 mm 2 mps 733 mmHg 97%

    7 June, Sunday

    Time Temperature Precipitation Wind Pressure Humidity
    00:00 +14°C° 0.2 mm 2 mps 733 mmHg 97%
    01:00 +14°C° 0.2 mm 2 mps 733 mmHg 98%
    02:00 +14°C° 0.2 mm 2 mps 733 mmHg 98%
    03:00 +15°C° 0.5 mm 2 mps 733 mmHg 98%
    04:00 +15°C° 0.5 mm 2 mps 733 mmHg 98%
    05:00 +15°C° 0.5 mm 2 mps 732 mmHg 98%
    06:00 +16°C° 0.4 mm 2 mps 732 mmHg 97%
    07:00 +17°C° 0.4 mm 2 mps 732 mmHg 97%
    08:00 +17°C° 0.4 mm 2 mps 733 mmHg 96%
    09:00 +17°C° 0.1 mm 2 mps 733 mmHg 95%
    10:00 +18°C° 0.1 mm 3 mps 733 mmHg 95%
    11:00 +18°C° 0.1 mm 3 mps 733 mmHg 95%
    12:00 +19°C° 0.4 mm 3 mps 733 mmHg 91%
    13:00 +20°C° 0.4 mm 3 mps 733 mmHg 88%
    14:00 +21°C° 0.4 mm 3 mps 733 mmHg 84%
    15:00 +21°C° 1.3 mm 3 mps 732 mmHg 86%
    16:00 +21°C° 1.3 mm 3 mps 732 mmHg 88%
    17:00 +21°C° 1.3 mm 3 mps 732 mmHg 89%
    18:00 +20°C° 0.4 mm 2 mps 732 mmHg 91%
    19:00 +18°C° 0.4 mm 2 mps 732 mmHg 93%
    20:00 +17°C° 0.4 mm 2 mps 732 mmHg 95%
    21:00 +17°C° 0.3 mm 2 mps 732 mmHg 96%
    22:00 +16°C° 0.3 mm 2 mps 732 mmHg 97%
    23:00 +15°C° 0.3 mm 2 mps 732 mmHg 98%
    Show more